カタログに戻る

STARLINK-36489

運用中通信VLEO
NORAD 67328·PAYLOAD·🇺🇸 United States

打ち上げ Jan 4, 2026 から Cape Canaveral Space Force Station

Loading…

次のパス (今後24時間)

TLE

最新Source: CelesTrak SupGP

元期: Sep 15, 2026, 03:40 UTC

1 67328C 26002Z   26258.15326389  .00051377  00000+0  18607-2 0  2580
2 67328  43.0016 335.4630 0001464 268.0911  60.4552 15.27556137    13

AllMySatでSTARLINK-36489をリアルタイム追跡

Download on the App Store